Location: Dimsdale
(55.1333°N, 118.9833°W)
Time: 12:43:35
(UTC+00:00)

Oscar 11 - Visible Passes

Search period start: 05 December 2023 00:00
Search period end: 15 December 2023 00:00
Orbit: 605 x 617 km, 97.7° (Epoch: 04 December)

Date Brightness Start Highest point End Pass type
(mag) Time Alt. Az. Time Alt. Az. Time Alt. Az.
05 Dec 9.6 12:48:16 10° N 12:48:23 11° N 12:48:23 11° N visible
06 Dec 9.6 13:02:57 10° N 13:03:02 10° N 13:03:02 10° N visible
08 Dec 9.9 00:19:33 10° SW 00:22:20 17° W 00:25:10 10° NW visible
09 Dec 10.1 00:35:11 10° WSW 00:37:07 13° W 00:39:03 10° WNW visible
14 Dec 9.8 00:10:31 10° SW 00:13:39 20° W 00:16:50 10° NW visible
